Time,TemperatureF,DewpointF,PressureIn,WindDirection,WindDirectionDegrees,WindSpeedMPH,WindSpeedGustMPH,Humidity,HourlyPrecipIn,Conditions,Clouds,dailyrainin,SoftwareType,DateUTC
2013-09-19 00:03:00,80.3,76.8,28.74,ESE,115,1.6,4.2,89,0.00,RA,,0.00,WeatherDisplay:10.37,2013-09-19 05:03:00,
2013-09-19 00:08:00,80.3,76.8,28.73,ESE,116,2.0,5.8,89,0.00,,,0.00,WeatherDisplay:10.37,2013-09-19 05:08:00,
2013-09-19 00:12:00,80.2,76.7,28.74,ESE,123,3.8,5.8,89,0.00,,,0.00,WeatherDisplay:10.37,2013-09-19 05:12:00,
2013-09-19 00:17:00,80.3,76.8,28.73,ESE,122,3.9,5.8,89,0.00,,,0.00,WeatherDisplay:10.37,2013-09-19 05:17:00,
2013-09-19 00:22:00,80.4,76.9,28.73,ESE,106,1.8,6.9,89,0.00,,,0.00,WeatherDisplay:10.37,2013-09-19 05:22:00,
2013-09-19 00:27:00,80.4,76.9,28.73,SE,129,0.7,4.6,89,0.00,,,0.00,WeatherDisplay:10.37,2013-09-19 05:27:00,
2013-09-19 00:32:00,80.3,76.8,28.73,ESE,105,0.3,3.5,89,0.00,,,0.00,WeatherDisplay:10.37,2013-09-19 05:32:00,
2013-09-19 00:37:00,80.2,76.3,28.73,SE,133,1.9,5.8,88,0.00,,,0.00,WeatherDisplay:10.37,2013-09-19 05:37:00,
2013-09-19 00:42:00,80.3,76.4,28.73,SE,130,1.9,4.6,88,0.00,,,0.00,WeatherDisplay:10.37,2013-09-19 05:42:00,
2013-09-19 00:47:00,80.4,76.5,28.73,East,95,3.4,5.8,88,0.00,,,0.00,WeatherDisplay:10.37,2013-09-19 05:47:00,
2013-09-19 00:52:00,80.4,76.5,28.73,ESE,120,1.9,5.8,88,0.00,,,0.00,WeatherDisplay:10.37,2013-09-19 05:52:00,
2013-09-19 00:57:00,80.4,76.5,28.73,ESE,116,1.1,2.3,88,0.00,,,0.00,WeatherDisplay:10.37,2013-09-19 05:57:00,
2013-09-19 01:02:00,80.4,76.9,28.73,SE,143,2.8,6.3,89,0.00,,,0.00,WeatherDisplay:10.37,2013-09-19 06:02:00,
2013-09-19 01:07:00,80.5,76.6,28.73,ESE,108,2.0,6.9,88,0.00,,,0.00,WeatherDisplay:10.37,2013-09-19 06:07:00,
2013-09-19 01:12:00,80.4,76.5,28.73,ESE,111,2.6,4.6,88,0.00,,,0.00,WeatherDisplay:10.37,2013-09-19 06:12:00,
2013-09-19 01:17:00,80.4,76.5,28.73,ESE,115,4.1,5.8,88,0.00,,,0.00,WeatherDisplay:10.37,2013-09-19 06:17:00,
2013-09-19 01:22:00,80.4,76.5,28.73,SE,124,0.9,5.8,88,0.00,,,0.00,WeatherDisplay:10.37,2013-09-19 06:22:00,
2013-09-19 01:27:00,80.4,76.5,28.73,ESE,121,4.1,6.9,88,0.00,,,0.00,WeatherDisplay:10.37,2013-09-19 06:27:00,
2013-09-19 01:32:00,80.4,76.5,28.73,ESE,121,1.4,4.6,88,0.00,,,0.00,WeatherDisplay:10.37,2013-09-19 06:32:00,
2013-09-19 01:37:00,80.3,76.8,28.72,ESE,123,4.0,9.2,89,0.00,,,0.00,WeatherDisplay:10.37,2013-09-19 06:37:00,
2013-09-19 01:42:00,80.3,76.4,28.72,ESE,115,2.8,3.5,88,0.00,,,0.00,WeatherDisplay:10.37,2013-09-19 06:42:00,
2013-09-19 01:47:00,80.3,76.8,28.72,ESE,107,2.4,3.5,89,0.00,,,0.00,WeatherDisplay:10.37,2013-09-19 06:47:00,
2013-09-19 01:52:00,80.3,76.8,28.72,East,88,3.3,4.6,89,0.00,,,0.00,WeatherDisplay:10.37,2013-09-19 06:52:00,
2013-09-19 01:57:00,80.2,76.7,28.72,ESE,123,4.2,8.1,89,0.00,,,0.00,WeatherDisplay:10.37,2013-09-19 06:57:00,
2013-09-19 02:02:00,80.2,76.7,28.72,ESE,109,1.2,5.8,89,0.00,,,0.00,WeatherDisplay:10.37,2013-09-19 07:02:00,
2013-09-19 02:07:00,80.2,76.7,28.72,SE,126,2.5,5.8,89,0.00,,,0.00,WeatherDisplay:10.37,2013-09-19 07:07:00,
2013-09-19 02:12:00,80.1,76.6,28.72,SE,135,1.5,4.6,89,0.00,,,0.00,WeatherDisplay:10.37,2013-09-19 07:12:00,
2013-09-19 02:17:00,80.1,76.6,28.71,ESE,120,1.3,3.5,89,0.00,,,0.00,WeatherDisplay:10.37,2013-09-19 07:17:00,
2013-09-19 02:22:00,80.0,76.5,28.71,SE,142,3.2,5.8,89,0.00,,,0.00,WeatherDisplay:10.37,2013-09-19 07:22:00,
2013-09-19 02:27:00,80.1,76.6,28.71,East,98,1.6,4.2,89,0.00,,,0.00,WeatherDisplay:10.37,2013-09-19 07:27:00,
2013-09-19 02:32:00,80.1,76.6,28.71,SE,140,2.3,4.2,89,0.00,,,0.00,WeatherDisplay:10.37,2013-09-19 07:32:00,
2013-09-19 02:37:00,79.8,76.6,28.71,South,178,0.7,2.3,90,0.00,,,0.00,WeatherDisplay:10.37,2013-09-19 07:37:00,
2013-09-19 02:42:00,79.4,76.5,28.71,SE,135,0.4,3.5,91,0.00,,,0.00,WeatherDisplay:10.37,2013-09-19 07:42:00,
2013-09-19 02:47:00,79.1,76.2,28.71,East,90,0.3,2.3,91,0.00,,,0.00,WeatherDisplay:10.37,2013-09-19 07:47:00,
2013-09-19 02:52:00,78.9,76.4,28.71,ESE,107,1.7,3.5,92,0.00,,,0.00,WeatherDisplay:10.37,2013-09-19 07:52:00,
2013-09-19 02:57:00,78.9,76.4,28.70,SE,139,0.5,4.6,92,0.00,,,0.00,WeatherDisplay:10.37,2013-09-19 07:57:00,
2013-09-19 03:02:00,78.9,76.4,28.71,East,98,0.5,2.1,92,0.00,,,0.00,WeatherDisplay:10.37,2013-09-19 08:02:00,
2013-09-19 03:07:00,78.9,76.4,28.70,SE,137,1.3,3.5,92,0.00,,,0.00,WeatherDisplay:10.37,2013-09-19 08:07:00,
2013-09-19 03:12:00,78.9,76.4,28.70,ESE,114,0.6,2.3,92,0.00,,,0.00,WeatherDisplay:10.37,2013-09-19 08:12:00,
2013-09-19 03:17:00,78.9,76.4,28.70,SE,132,0.8,2.3,92,0.00,,,0.00,WeatherDisplay:10.37,2013-09-19 08:17:00,
2013-09-19 03:22:00,78.9,76.4,28.70,SSE,154,0.3,1.2,92,0.00,,,0.00,WeatherDisplay:10.37,2013-09-19 08:22:00,
2013-09-19 03:27:00,78.9,76.4,28.70,ESE,121,2.3,5.8,92,0.00,,,0.00,WeatherDisplay:10.37,2013-09-19 08:27:00,
2013-09-19 03:32:00,79.0,76.1,28.70,SE,132,1.4,4.2,91,0.00,,,0.00,WeatherDisplay:10.37,2013-09-19 08:32:00,
2013-09-19 03:37:00,79.1,75.9,28.69,SE,132,2.3,3.5,90,0.00,,,0.00,WeatherDisplay:10.37,2013-09-19 08:37:00,
2013-09-19 03:42:00,79.2,76.0,28.69,SE,128,1.3,3.5,90,0.00,,,0.00,WeatherDisplay:10.37,2013-09-19 08:42:00,
2013-09-19 03:47:00,79.2,76.0,28.69,ESE,114,0.4,3.2,90,0.00,,,0.00,WeatherDisplay:10.37,2013-09-19 08:47:00,
2013-09-19 03:52:00,79.2,76.0,28.69,ESE,106,2.5,5.8,90,0.00,,,0.00,WeatherDisplay:10.37,2013-09-19 08:52:00,
2013-09-19 03:57:00,79.3,76.1,28.69,ESE,119,1.5,4.6,90,0.00,,,0.00,WeatherDisplay:10.37,2013-09-19 08:57:00,
2013-09-19 04:02:00,79.4,76.2,28.69,ESE,123,1.6,3.5,90,0.00,,,0.00,WeatherDisplay:10.37,2013-09-19 09:02:00,
2013-09-19 04:07:00,79.4,76.2,28.69,SE,146,0.7,2.1,90,0.00,,,0.00,WeatherDisplay:10.37,2013-09-19 09:07:00,
2013-09-19 04:12:00,79.4,76.2,28.69,SE,130,0.3,2.3,90,0.00,,,0.00,WeatherDisplay:10.37,2013-09-19 09:12:00,
2013-09-19 04:17:00,79.4,76.2,28.69,ESE,121,2.8,4.6,90,0.00,,,0.00,WeatherDisplay:10.37,2013-09-19 09:17:00,
2013-09-19 04:22:00,79.4,76.5,28.69,ESE,116,0.9,3.5,91,0.00,,,0.00,WeatherDisplay:10.37,2013-09-19 09:22:00,
2013-09-19 04:27:00,79.4,76.5,28.69,ESE,123,0.6,3.5,91,0.00,,,0.00,WeatherDisplay:10.37,2013-09-19 09:27:00,
2013-09-19 04:32:00,79.3,76.4,28.69,SE,132,0.3,2.3,91,0.00,,,0.00,WeatherDisplay:10.37,2013-09-19 09:32:00,
2013-09-19 04:37:00,79.3,76.4,28.68,ESE,121,0.8,2.3,91,0.00,,,0.00,WeatherDisplay:10.37,2013-09-19 09:37:00,
2013-09-19 04:42:00,79.3,76.4,28.69,ESE,121,1.0,3.5,91,0.00,,,0.00,WeatherDisplay:10.37,2013-09-19 09:42:00,
2013-09-19 04:47:00,79.2,76.3,28.69,SE,126,1.2,3.5,91,0.00,,,0.00,WeatherDisplay:10.37,2013-09-19 09:47:00,
2013-09-19 04:52:00,79.2,76.3,28.68,SE,125,0.0,2.3,91,0.00,,,0.00,WeatherDisplay:10.37,2013-09-19 09:52:00,
2013-09-19 04:57:00,79.1,76.2,28.68,ESE,112,0.2,3.5,91,0.00,,,0.00,WeatherDisplay:10.37,2013-09-19 09:57:00,
2013-09-19 05:02:00,79.1,76.2,28.68,SE,144,1.2,2.3,91,0.00,,,0.00,WeatherDisplay:10.37,2013-09-19 10:02:00,
2013-09-19 05:07:00,79.1,76.2,28.68,ESE,114,0.2,2.3,91,0.00,,,0.00,WeatherDisplay:10.37,2013-09-19 10:07:00,
2013-09-19 05:12:00,79.1,76.2,28.68,SE,126,0.4,1.2,91,0.00,,,0.00,WeatherDisplay:10.37,2013-09-19 10:12:00,
2013-09-19 05:17:00,79.0,76.1,28.68,SE,135,0.3,1.2,91,0.00,,,0.00,WeatherDisplay:10.37,2013-09-19 10:17:00,
2013-09-19 05:22:00,79.0,76.1,28.69,SE,133,0.0,0.0,91,0.00,,,0.00,WeatherDisplay:10.37,2013-09-19 10:22:00,
2013-09-19 05:27:00,78.9,76.0,28.69,SE,143,0.5,1.2,91,0.00,,,0.00,WeatherDisplay:10.37,2013-09-19 10:27:00,
2013-09-19 05:32:00,78.8,75.9,28.69,ESE,120,0.0,1.2,91,0.00,,,0.00,WeatherDisplay:10.37,2013-09-19 10:32:00,
2013-09-19 05:37:00,78.7,75.8,28.69,ESE,116,0.3,1.2,91,0.00,,,0.00,WeatherDisplay:10.37,2013-09-19 10:37:00,
2013-09-19 05:42:00,78.6,76.1,28.69,ESE,120,0.0,1.2,92,0.00,,,0.00,WeatherDisplay:10.37,2013-09-19 10:42:00,
2013-09-19 05:47:00,78.5,76.0,28.69,ESE,121,0.0,0.0,92,0.00,,,0.00,WeatherDisplay:10.37,2013-09-19 10:47:00,
2013-09-19 05:52:00,78.5,76.0,28.69,ESE,117,0.0,1.2,92,0.00,,,0.00,WeatherDisplay:10.37,2013-09-19 10:52:00,
2013-09-19 05:57:00,78.5,76.0,28.68,SE,128,0.0,1.2,92,0.00,,,0.00,WeatherDisplay:10.37,2013-09-19 10:57:00,
2013-09-19 06:02:00,78.5,76.0,28.69,SSE,156,0.0,1.2,92,0.00,,,0.00,WeatherDisplay:10.37,2013-09-19 11:02:00,
2013-09-19 06:07:00,78.5,76.0,28.69,SE,132,0.3,0.0,92,0.00,,,0.00,WeatherDisplay:10.37,2013-09-19 11:07:00,
2013-09-19 06:12:00,78.5,76.3,28.69,SE,141,0.3,1.2,93,0.00,,,0.00,WeatherDisplay:10.37,2013-09-19 11:12:00,
2013-09-19 06:17:00,78.4,76.2,28.69,SE,144,0.0,1.2,93,0.00,,,0.00,WeatherDisplay:10.37,2013-09-19 11:17:00,
2013-09-19 06:22:00,78.3,75.8,28.69,South,177,0.0,0.0,92,0.00,,,0.00,WeatherDisplay:10.37,2013-09-19 11:22:00,
2013-09-19 06:27:00,78.3,75.8,28.69,SSE,154,0.0,1.2,92,0.00,,,0.00,WeatherDisplay:10.37,2013-09-19 11:27:00,
2013-09-19 06:32:00,78.2,75.7,28.69,SE,133,0.2,1.2,92,0.00,,,0.00,WeatherDisplay:10.37,2013-09-19 11:32:00,
2013-09-19 06:37:00,78.2,75.7,28.69,SE,133,0.0,0.0,92,0.00,,,0.00,WeatherDisplay:10.37,2013-09-19 11:37:00,
2013-09-19 06:42:00,78.1,75.6,28.69,SE,133,0.1,0.0,92,0.00,,,0.00,WeatherDisplay:10.37,2013-09-19 11:42:00,
2013-09-19 06:47:00,78.1,75.6,28.69,ESE,109,0.0,1.2,92,0.00,,,0.00,WeatherDisplay:10.37,2013-09-19 11:47:00,
2013-09-19 06:52:00,78.1,75.6,28.69,ESE,116,0.0,1.2,92,0.00,,,0.00,WeatherDisplay:10.37,2013-09-19 11:52:00,
2013-09-19 06:57:00,78.1,75.6,28.69,ESE,119,0.1,1.2,92,0.00,,,0.00,WeatherDisplay:10.37,2013-09-19 11:57:00,
2013-09-19 07:02:00,78.1,75.9,28.70,ESE,123,0.1,0.0,93,0.00,,,0.00,WeatherDisplay:10.37,2013-09-19 12:02:00,
2013-09-19 07:07:00,78.1,75.9,28.70,ESE,122,0.0,0.0,93,0.00,,,0.00,WeatherDisplay:10.37,2013-09-19 12:07:00,
2013-09-19 07:12:00,78.0,75.8,28.70,ESE,122,0.0,1.2,93,0.00,,,0.00,WeatherDisplay:10.37,2013-09-19 12:12:00,
2013-09-19 07:17:00,77.9,75.7,28.70,ESE,122,0.0,0.0,93,0.00,,,0.00,WeatherDisplay:10.37,2013-09-19 12:17:00,
2013-09-19 07:22:00,77.9,75.7,28.70,ESE,122,0.0,0.0,93,0.00,,,0.00,WeatherDisplay:10.37,2013-09-19 12:22:00,
2013-09-19 07:27:00,77.7,75.5,28.70,ESE,121,0.0,0.0,93,0.00,,,0.00,WeatherDisplay:10.37,2013-09-19 12:27:00,
2013-09-19 07:32:00,77.6,75.7,28.70,ESE,121,0.0,0.0,94,0.00,,,0.00,WeatherDisplay:10.37,2013-09-19 12:32:00,
2013-09-19 07:37:00,77.6,75.7,28.70,ESE,122,0.0,0.0,94,0.00,,,0.00,WeatherDisplay:10.37,2013-09-19 12:37:00,
2013-09-19 07:42:00,77.8,75.9,28.70,ESE,122,0.0,0.0,94,0.00,,,0.00,WeatherDisplay:10.37,2013-09-19 12:42:00,
2013-09-19 07:47:00,78.2,76.3,28.70,ESE,121,0.0,1.2,94,0.00,,,0.00,WeatherDisplay:10.37,2013-09-19 12:47:00,
2013-09-19 07:52:00,78.4,76.5,28.70,SE,126,0.0,0.0,94,0.00,,,0.00,WeatherDisplay:10.37,2013-09-19 12:52:00,
2013-09-19 07:57:00,78.5,76.3,28.70,SE,126,0.1,1.2,93,0.00,,,0.00,WeatherDisplay:10.37,2013-09-19 12:57:00,
2013-09-19 08:02:00,78.5,76.3,28.70,SE,126,0.0,0.0,93,0.00,,,0.00,WeatherDisplay:10.37,2013-09-19 13:02:00,
2013-09-19 08:07:00,78.8,76.9,28.71,SE,126,0.0,0.0,94,0.00,,,0.00,WeatherDisplay:10.37,2013-09-19 13:07:00,
2013-09-19 08:12:00,79.3,77.4,28.70,SE,126,0.0,0.0,94,0.00,,,0.00,WeatherDisplay:10.37,2013-09-19 13:12:00,
2013-09-19 08:17:00,79.8,77.6,28.71,SE,132,0.3,1.2,93,0.00,,,0.00,WeatherDisplay:10.37,2013-09-19 13:17:00,
2013-09-19 08:22:00,80.6,78.1,28.70,ESE,102,1.3,2.3,92,0.00,,,0.00,WeatherDisplay:10.37,2013-09-19 13:22:00,
2013-09-19 08:27:00,81.3,78.1,28.71,SE,132,0.5,1.2,90,0.00,,,0.00,WeatherDisplay:10.37,2013-09-19 13:27:00,
2013-09-19 08:32:00,82.2,78.3,28.71,ESE,111,2.1,2.1,88,0.00,,,0.00,WeatherDisplay:10.37,2013-09-19 13:32:00,
2013-09-19 08:37:00,82.4,78.1,28.71,ESE,118,1.7,5.8,87,0.00,,,0.00,WeatherDisplay:10.37,2013-09-19 13:37:00,
2013-09-19 08:42:00,82.9,78.6,28.71,SE,140,1.2,2.1,87,0.00,,,0.00,WeatherDisplay:10.37,2013-09-19 13:42:00,
2013-09-19 08:47:00,83.2,77.9,28.72,SE,130,2.6,3.5,84,0.00,,,0.00,WeatherDisplay:10.37,2013-09-19 13:47:00,
2013-09-19 08:52:00,83.2,77.9,28.72,ESE,120,2.1,4.2,84,0.00,,,0.00,WeatherDisplay:10.37,2013-09-19 13:52:00,
2013-09-19 08:57:00,83.2,77.9,28.72,ESE,107,2.4,4.6,84,0.00,,,0.00,WeatherDisplay:10.37,2013-09-19 13:57:00,
2013-09-19 09:02:00,83.4,77.7,28.72,SE,142,2.9,5.8,83,0.00,,,0.00,WeatherDisplay:10.37,2013-09-19 14:02:00,
2013-09-19 09:07:00,83.7,78.0,28.72,SE,124,1.2,5.8,83,0.00,,,0.00,WeatherDisplay:10.37,2013-09-19 14:07:00,
2013-09-19 09:12:00,83.9,77.8,28.72,SSE,148,4.8,6.9,82,0.00,,,0.00,WeatherDisplay:10.37,2013-09-19 14:12:00,
2013-09-19 09:17:00,84.1,78.0,28.72,ESE,116,4.0,5.8,82,0.00,,,0.00,WeatherDisplay:10.37,2013-09-19 14:17:00,
2013-09-19 09:22:00,83.9,77.4,28.73,East,97,5.2,8.1,81,0.00,,,0.00,WeatherDisplay:10.37,2013-09-19 14:22:00,
2013-09-19 09:27:00,84.3,77.8,28.72,East,101,4.1,8.1,81,0.00,,,0.00,WeatherDisplay:10.37,2013-09-19 14:27:00,
2013-09-19 09:32:00,84.2,77.7,28.73,East,96,5.0,6.9,81,0.00,,,0.00,WeatherDisplay:10.37,2013-09-19 14:32:00,
2013-09-19 09:37:00,84.4,78.3,28.73,SE,144,4.0,5.8,82,0.00,,,0.00,WeatherDisplay:10.37,2013-09-19 14:37:00,
2013-09-19 09:42:00,84.6,78.1,28.73,ESE,106,0.5,2.3,81,0.00,,,0.00,WeatherDisplay:10.37,2013-09-19 14:42:00,
2013-09-19 09:47:00,84.8,77.9,28.73,East,85,3.8,8.1,80,0.00,,,0.00,WeatherDisplay:10.37,2013-09-19 14:47:00,
2013-09-19 09:52:00,84.8,77.9,28.73,ENE,71,6.2,6.2,80,0.00,,,0.00,WeatherDisplay:10.37,2013-09-19 14:52:00,
2013-09-19 09:57:00,84.9,78.4,28.74,East,95,5.0,5.0,81,0.00,,,0.00,WeatherDisplay:10.37,2013-09-19 14:57:00,
2013-09-19 10:02:00,84.7,77.8,28.74,SE,137,5.1,6.9,80,0.00,,,0.00,WeatherDisplay:10.37,2013-09-19 15:02:00,
2013-09-19 10:07:00,84.6,77.7,28.73,East,79,5.6,9.2,80,0.00,,,0.00,WeatherDisplay:10.37,2013-09-19 15:07:00,
2013-09-19 10:12:00,85.0,78.5,28.74,ESE,119,5.9,6.9,81,0.00,,,0.00,WeatherDisplay:10.37,2013-09-19 15:12:00,
2013-09-19 10:17:00,84.8,78.3,28.74,ESE,119,3.9,5.8,81,0.00,,,0.00,WeatherDisplay:10.37,2013-09-19 15:17:00,
2013-09-19 10:22:00,84.7,78.6,28.74,East,97,3.7,5.8,82,0.00,,,0.00,WeatherDisplay:10.37,2013-09-19 15:22:00,
2013-09-19 10:27:00,84.8,77.9,28.74,ESE,121,3.9,6.9,80,0.00,,,0.00,WeatherDisplay:10.37,2013-09-19 15:27:00,
2013-09-19 10:32:00,84.8,78.7,28.74,ESE,111,4.2,5.8,82,0.00,,,0.00,WeatherDisplay:10.37,2013-09-19 15:32:00,
2013-09-19 10:37:00,84.8,77.9,28.74,East,98,7.8,10.4,80,0.00,,,0.00,WeatherDisplay:10.37,2013-09-19 15:37:00,
2013-09-19 10:42:00,85.1,77.8,28.74,SE,128,3.2,6.9,79,0.00,,,0.00,WeatherDisplay:10.37,2013-09-19 15:42:00,
2013-09-19 10:47:00,85.5,77.9,28.74,ESE,115,3.3,5.8,78,0.00,,,0.00,WeatherDisplay:10.37,2013-09-19 15:47:00,
2013-09-19 10:52:00,85.6,78.3,28.74,ESE,114,5.5,9.2,79,0.00,,,0.00,WeatherDisplay:10.37,2013-09-19 15:52:00,
2013-09-19 10:57:00,85.4,77.8,28.74,ESE,109,7.7,9.2,78,0.00,,,0.00,WeatherDisplay:10.37,2013-09-19 15:57:00,
2013-09-19 11:02:00,85.4,77.8,28.74,East,101,6.9,9.2,78,0.00,,,0.00,WeatherDisplay:10.37,2013-09-19 16:02:00,
2013-09-19 11:07:00,85.6,77.9,28.73,ESE,103,4.0,8.1,78,0.00,,,0.00,WeatherDisplay:10.37,2013-09-19 16:07:00,
2013-09-19 11:12:00,85.5,77.9,28.73,ESE,116,4.5,5.8,78,0.00,,,0.00,WeatherDisplay:10.37,2013-09-19 16:12:00,
2013-09-19 11:17:00,85.5,77.9,28.73,East,87,6.3,8.4,78,0.00,,,0.00,WeatherDisplay:10.37,2013-09-19 16:17:00,
2013-09-19 11:22:00,85.5,77.9,28.74,East,92,7.3,9.5,78,0.00,,,0.00,WeatherDisplay:10.37,2013-09-19 16:22:00,
2013-09-19 11:27:00,85.7,78.8,28.74,SE,138,3.9,6.3,80,0.00,,,0.00,WeatherDisplay:10.37,2013-09-19 16:27:00,
2013-09-19 11:32:00,85.8,78.5,28.73,East,92,5.7,11.5,79,0.00,,,0.00,WeatherDisplay:10.37,2013-09-19 16:32:00,
2013-09-19 11:37:00,86.1,78.8,28.73,SE,125,1.4,5.8,79,0.00,,,0.00,WeatherDisplay:10.37,2013-09-19 16:37:00,
2013-09-19 11:42:00,86.3,78.2,28.74,SE,129,3.8,11.5,77,0.00,,,0.00,WeatherDisplay:10.37,2013-09-19 16:42:00,
2013-09-19 11:47:00,86.2,78.5,28.73,ENE,64,2.4,8.1,78,0.00,,,0.00,WeatherDisplay:10.37,2013-09-19 16:47:00,
2013-09-19 11:52:00,86.2,78.5,28.73,ENE,75,2.5,4.6,78,0.00,,,0.00,WeatherDisplay:10.37,2013-09-19 16:52:00,
2013-09-19 11:57:00,86.4,79.1,28.73,East,90,3.9,8.1,79,0.00,,,0.00,WeatherDisplay:10.37,2013-09-19 16:57:00,
2013-09-19 12:02:00,85.9,78.6,28.73,East,87,2.9,11.5,79,0.00,,,0.00,WeatherDisplay:10.37,2013-09-19 17:02:00,
2013-09-19 12:07:00,86.3,79.0,28.73,ESE,102,4.2,6.3,79,0.00,,,0.00,WeatherDisplay:10.37,2013-09-19 17:07:00,
2013-09-19 12:12:00,86.1,78.4,28.73,ESE,115,7.6,8.4,78,0.00,,,0.00,WeatherDisplay:10.37,2013-09-19 17:12:00,
2013-09-19 12:17:00,85.7,78.4,28.73,NNE,33,4.8,8.1,79,0.00,,,0.00,WeatherDisplay:10.37,2013-09-19 17:17:00,
2013-09-19 12:22:00,85.7,78.8,28.73,East,101,3.4,5.8,80,0.00,,,0.00,WeatherDisplay:10.37,2013-09-19 17:22:00,
2013-09-19 12:27:00,85.7,78.8,28.73,ESE,111,0.6,10.4,80,0.00,,,0.00,WeatherDisplay:10.37,2013-09-19 17:27:00,
2013-09-19 12:32:00,85.9,79.0,28.73,ENE,78,3.5,6.9,80,0.00,,,0.00,WeatherDisplay:10.37,2013-09-19 17:32:00,
2013-09-19 12:37:00,86.3,79.0,28.73,ESE,111,2.1,9.2,79,0.00,,,0.00,WeatherDisplay:10.37,2013-09-19 17:37:00,
2013-09-19 12:42:00,85.9,78.2,28.72,ESE,111,3.8,11.5,78,0.00,,,0.00,WeatherDisplay:10.37,2013-09-19 17:42:00,
2013-09-19 12:47:00,86.1,78.4,28.72,SE,137,4.3,9.2,78,0.00,,,0.00,WeatherDisplay:10.37,2013-09-19 17:47:00,
2013-09-19 12:52:00,86.2,78.1,28.72,ENE,75,6.8,9.4,77,0.00,,,0.00,WeatherDisplay:10.37,2013-09-19 17:52:00,
2013-09-19 12:57:00,86.4,78.3,28.72,SE,130,7.8,11.5,77,0.00,,,0.00,WeatherDisplay:10.37,2013-09-19 17:57:00,
2013-09-19 13:02:00,86.4,78.3,28.72,East,95,3.0,10.4,77,0.00,,,0.00,WeatherDisplay:10.37,2013-09-19 18:02:00,
2013-09-19 13:07:00,86.6,78.9,28.72,SE,126,3.3,5.2,78,0.00,,,0.00,WeatherDisplay:10.37,2013-09-19 18:07:00,
2013-09-19 13:12:00,87.2,79.5,28.72,SE,128,1.1,5.8,78,0.00,,,0.00,WeatherDisplay:10.37,2013-09-19 18:12:00,
2013-09-19 13:17:00,87.1,78.6,28.71,SE,137,8.2,10.4,76,0.00,,,0.00,WeatherDisplay:10.37,2013-09-19 18:17:00,
2013-09-19 13:22:00,87.1,79.0,28.71,ESE,106,2.9,4.6,77,0.00,,,0.00,WeatherDisplay:10.37,2013-09-19 18:22:00,
2013-09-19 13:27:00,86.9,78.4,28.71,East,98,2.9,9.2,76,0.00,,,0.00,WeatherDisplay:10.37,2013-09-19 18:27:00,
2013-09-19 13:32:00,86.7,78.6,28.71,ESE,111,6.7,12.7,77,0.00,,,0.00,WeatherDisplay:10.37,2013-09-19 18:32:00,
2013-09-19 13:37:00,86.4,78.3,28.71,ESE,116,10.5,12.7,77,0.00,,,0.00,WeatherDisplay:10.37,2013-09-19 18:37:00,
2013-09-19 13:42:00,86.2,78.5,28.71,East,99,4.8,8.1,78,0.00,,,0.00,WeatherDisplay:10.37,2013-09-19 18:42:00,
2013-09-19 13:47:00,86.3,77.4,28.71,SE,143,5.3,12.7,75,0.00,,,0.00,WeatherDisplay:10.37,2013-09-19 18:47:00,
2013-09-19 13:52:00,86.8,79.1,28.71,SE,128,5.4,11.5,78,0.00,,,0.00,WeatherDisplay:10.37,2013-09-19 18:52:00,
2013-09-19 13:57:00,86.3,78.6,28.71,NE,36,5.3,5.8,78,0.00,,,0.00,WeatherDisplay:10.37,2013-09-19 18:57:00,
2013-09-19 14:02:00,85.8,78.5,28.70,ESE,102,2.0,8.1,79,0.00,,,0.00,WeatherDisplay:10.37,2013-09-19 19:02:00,
2013-09-19 14:07:00,86.4,78.7,28.70,ESE,121,4.3,8.1,78,0.00,,,0.00,WeatherDisplay:10.37,2013-09-19 19:07:00,
2013-09-19 14:12:00,86.4,78.3,28.70,SE,130,4.3,10.4,77,0.00,,,0.00,WeatherDisplay:10.37,2013-09-19 19:12:00,
2013-09-19 14:17:00,86.6,78.5,28.70,ESE,119,5.5,11.5,77,0.00,,,0.00,WeatherDisplay:10.37,2013-09-19 19:17:00,
2013-09-19 14:22:00,86.6,78.5,28.69,East,81,3.5,6.3,77,0.00,,,0.00,WeatherDisplay:10.37,2013-09-19 19:22:00,
2013-09-19 14:27:00,86.8,78.7,28.70,ESE,123,2.2,4.6,77,0.00,,,0.00,WeatherDisplay:10.37,2013-09-19 19:27:00,
2013-09-19 14:32:00,86.9,78.8,28.69,ESE,106,2.6,9.2,77,0.00,,,0.00,WeatherDisplay:10.37,2013-09-19 19:32:00,
2013-09-19 14:37:00,86.8,78.3,28.69,SE,126,6.9,12.7,76,0.00,,,0.00,WeatherDisplay:10.37,2013-09-19 19:37:00,
2013-09-19 14:42:00,86.4,78.3,28.68,East,98,6.5,9.2,77,0.00,,,0.00,WeatherDisplay:10.37,2013-09-19 19:42:00,
2013-09-19 14:47:00,87.1,78.6,28.68,East,95,5.3,9.2,76,0.00,,,0.00,WeatherDisplay:10.37,2013-09-19 19:47:00,
2013-09-19 14:52:00,87.0,78.1,28.68,East,99,7.2,10.4,75,0.00,,,0.00,WeatherDisplay:10.37,2013-09-19 19:52:00,
2013-09-19 14:57:00,87.0,78.1,28.69,ESE,123,8.8,10.4,75,0.00,,,0.00,WeatherDisplay:10.37,2013-09-19 19:57:00,
2013-09-19 15:02:00,86.5,77.6,28.68,SE,132,8.2,12.6,75,0.00,,,0.00,WeatherDisplay:10.37,2013-09-19 20:02:00,
2013-09-19 15:07:00,86.5,77.6,28.69,East,90,8.3,17.3,75,0.00,,,0.00,WeatherDisplay:10.37,2013-09-19 20:07:00,
2013-09-19 15:12:00,86.1,77.2,28.68,ESE,111,5.7,12.7,75,0.00,,,0.00,WeatherDisplay:10.37,2013-09-19 20:12:00,
2013-09-19 15:17:00,86.0,77.9,28.68,East,100,6.6,8.1,77,0.00,,,0.00,WeatherDisplay:10.37,2013-09-19 20:17:00,
2013-09-19 15:22:00,86.6,78.5,28.68,East,90,4.3,8.1,77,0.00,,,0.00,WeatherDisplay:10.37,2013-09-19 20:22:00,
2013-09-19 15:27:00,86.8,78.7,28.68,East,95,5.8,9.2,77,0.00,,,0.00,WeatherDisplay:10.37,2013-09-19 20:27:00,
2013-09-19 15:32:00,85.2,77.9,28.68,ENE,66,5.8,11.5,79,0.00,,,0.00,WeatherDisplay:10.37,2013-09-19 20:32:00,
2013-09-19 15:37:00,84.4,78.3,28.68,ESE,119,2.4,3.5,82,0.00,,,0.00,WeatherDisplay:10.37,2013-09-19 20:37:00,
2013-09-19 15:42:00,85.1,77.8,28.68,ESE,104,5.0,11.5,79,0.00,,,0.00,WeatherDisplay:10.37,2013-09-19 20:42:00,
2013-09-19 15:47:00,85.7,78.0,28.68,East,90,9.8,12.7,78,0.00,,,0.00,WeatherDisplay:10.37,2013-09-19 20:47:00,
2013-09-19 15:51:00,85.4,78.1,28.67,East,85,8.0,15.0,79,0.00,,,0.00,WeatherDisplay:10.37,2013-09-19 20:51:00,
2013-09-19 15:56:00,85.6,77.6,28.67,ESE,106,6.2,8.1,77,0.00,,,0.00,WeatherDisplay:10.37,2013-09-19 20:56:00,
2013-09-19 16:01:00,85.6,77.9,28.67,SE,131,8.3,15.0,78,0.00,,,0.00,WeatherDisplay:10.37,2013-09-19 21:01:00,
2013-09-19 16:06:00,84.8,77.6,28.67,East,92,3.4,5.8,79,0.00,,,0.00,WeatherDisplay:10.37,2013-09-19 21:06:00,
2013-09-19 16:11:00,84.3,77.5,28.67,ESE,107,7.3,16.1,80,0.00,,,0.00,WeatherDisplay:10.37,2013-09-19 21:11:00,
2013-09-19 16:16:00,83.9,77.4,28.67,East,99,4.8,6.9,81,0.00,,,0.00,WeatherDisplay:10.37,2013-09-19 21:16:00,
2013-09-19 16:21:00,84.1,77.6,28.67,SE,130,3.9,7.4,81,0.00,,,0.00,WeatherDisplay:10.37,2013-09-19 21:21:00,
2013-09-19 16:26:00,84.3,77.5,28.67,ESE,107,5.9,5.9,80,0.00,,,0.00,WeatherDisplay:10.37,2013-09-19 21:26:00,
2013-09-19 16:31:00,84.2,77.4,28.67,ESE,114,5.8,8.4,80,0.00,,,0.00,WeatherDisplay:10.37,2013-09-19 21:31:00,
2013-09-19 16:36:00,84.0,77.2,28.66,ESE,118,4.3,8.1,80,0.00,,,0.00,WeatherDisplay:10.37,2013-09-19 21:36:00,
2013-09-19 16:41:00,83.9,77.4,28.66,ENE,70,10.1,10.1,81,0.00,,,0.00,WeatherDisplay:10.37,2013-09-19 21:41:00,
2013-09-19 16:46:00,83.6,77.5,28.66,ESE,123,9.4,13.8,82,0.00,,,0.00,WeatherDisplay:10.37,2013-09-19 21:46:00,
2013-09-19 16:51:00,83.5,77.8,28.66,SE,128,5.1,9.2,83,0.00,,,0.00,WeatherDisplay:10.37,2013-09-19 21:51:00,
2013-09-19 16:56:00,83.6,77.9,28.66,ESE,121,3.8,8.1,83,0.00,,,0.00,WeatherDisplay:10.37,2013-09-19 21:56:00,
2013-09-19 17:01:00,83.8,78.1,28.66,ESE,111,2.4,8.4,83,0.00,,,0.00,WeatherDisplay:10.37,2013-09-19 22:01:00,
2013-09-19 17:06:00,83.8,78.4,28.66,ESE,106,7.5,12.7,84,0.00,,,0.00,WeatherDisplay:10.37,2013-09-19 22:06:00,
2013-09-19 17:11:00,83.9,78.5,28.66,ENE,78,9.6,9.6,84,0.00,,,0.00,WeatherDisplay:10.37,2013-09-19 22:11:00,
2013-09-19 17:16:00,83.8,77.3,28.66,SSE,152,6.6,15.0,81,0.00,,,0.00,WeatherDisplay:10.37,2013-09-19 22:16:00,
2013-09-19 17:21:00,84.0,77.2,28.66,ESE,111,8.0,9.2,80,0.00,,,0.00,WeatherDisplay:10.37,2013-09-19 22:21:00,
2013-09-19 17:26:00,84.2,77.0,28.66,East,87,7.2,9.2,79,0.00,,,0.00,WeatherDisplay:10.37,2013-09-19 22:26:00,
2013-09-19 17:31:00,84.3,77.5,28.65,SSE,147,4.3,6.9,80,0.00,,,0.00,WeatherDisplay:10.37,2013-09-19 22:31:00,
2013-09-19 17:36:00,84.5,78.4,28.66,East,99,3.1,5.8,82,0.00,,,0.00,WeatherDisplay:10.37,2013-09-19 22:36:00,
2013-09-19 17:41:00,84.6,78.5,28.65,East,87,5.9,13.8,82,0.00,,,0.00,WeatherDisplay:10.37,2013-09-19 22:41:00,
2013-09-19 17:46:00,84.4,77.9,28.65,ESE,119,9.4,15.0,81,0.00,,,0.00,WeatherDisplay:10.37,2013-09-19 22:46:00,
2013-09-19 17:51:00,83.9,77.8,28.65,SSE,152,3.7,23.0,82,0.00,,,0.00,WeatherDisplay:10.37,2013-09-19 22:51:00,
2013-09-19 17:56:00,84.1,78.0,28.65,ESE,112,7.8,12.6,82,0.00,,,0.00,WeatherDisplay:10.37,2013-09-19 22:56:00,
2013-09-19 18:01:00,84.0,77.5,28.65,ESE,103,8.6,12.7,81,0.00,,,0.00,WeatherDisplay:10.37,2013-09-19 23:01:00,
2013-09-19 18:06:00,84.1,78.0,28.65,SE,142,7.7,13.8,82,0.00,,,0.00,WeatherDisplay:10.37,2013-09-19 23:06:00,
2013-09-19 18:11:00,83.9,77.4,28.65,ESE,103,7.8,15.0,81,0.00,,,0.00,WeatherDisplay:10.37,2013-09-19 23:11:00,
2013-09-19 18:16:00,83.8,78.1,28.65,SE,128,7.4,10.5,83,0.00,,,0.00,WeatherDisplay:10.37,2013-09-19 23:16:00,
2013-09-19 18:21:00,83.7,78.0,28.65,East,94,4.4,10.4,83,0.00,,,0.00,WeatherDisplay:10.37,2013-09-19 23:21:00,
2013-09-19 18:26:00,83.7,78.0,28.65,East,94,6.7,8.1,83,0.00,,,0.00,WeatherDisplay:10.37,2013-09-19 23:26:00,
2013-09-19 18:31:00,83.4,77.3,28.65,East,92,7.0,10.4,82,0.00,,,0.00,WeatherDisplay:10.37,2013-09-19 23:31:00,
2013-09-19 18:36:00,83.2,77.5,28.65,East,92,7.6,11.5,83,0.00,,,0.00,WeatherDisplay:10.37,2013-09-19 23:36:00,
2013-09-19 18:41:00,83.2,77.5,28.65,SE,135,5.1,8.1,83,0.00,,,0.00,WeatherDisplay:10.37,2013-09-19 23:41:00,
2013-09-19 18:46:00,83.1,77.4,28.65,ESE,102,6.2,9.2,83,0.00,,,0.00,WeatherDisplay:10.37,2013-09-19 23:46:00,
2013-09-19 18:51:00,83.0,77.3,28.65,SE,128,7.3,15.0,83,0.00,,,0.00,WeatherDisplay:10.37,2013-09-19 23:51:00,
2013-09-19 18:56:00,82.9,77.2,28.65,ESE,103,5.1,9.2,83,0.00,,,0.00,WeatherDisplay:10.37,2013-09-19 23:56:00,
2013-09-19 19:01:00,82.7,77.0,28.65,SE,124,4.8,6.9,83,0.00,,,0.00,WeatherDisplay:10.37,2013-09-20 00:01:00,
2013-09-19 19:06:00,82.5,77.2,28.65,East,88,9.0,17.3,84,0.00,,,0.00,WeatherDisplay:10.37,2013-09-20 00:06:00,
2013-09-19 19:12:00,82.4,77.4,28.65,ESE,105,8.8,10.5,85,0.00,,,0.00,WeatherDisplay:10.37,2013-09-20 00:12:00,
2013-09-19 19:17:00,82.3,77.7,28.65,ESE,106,4.5,9.5,86,0.00,,,0.00,WeatherDisplay:10.37,2013-09-20 00:17:00,
2013-09-19 19:22:00,82.3,77.7,28.65,ESE,102,3.8,9.2,86,0.00,,,0.00,WeatherDisplay:10.37,2013-09-20 00:22:00,
2013-09-19 19:27:00,82.1,77.1,28.65,ESE,105,2.7,9.2,85,0.00,,,0.00,WeatherDisplay:10.37,2013-09-20 00:27:00,
2013-09-19 19:32:00,82.0,77.4,28.65,ESE,119,2.8,5.8,86,0.00,,,0.00,WeatherDisplay:10.37,2013-09-20 00:32:00,
2013-09-19 19:37:00,82.0,77.4,28.65,ESE,116,3.9,8.1,86,0.00,,,0.00,WeatherDisplay:10.37,2013-09-20 00:37:00,
2013-09-19 19:42:00,81.9,76.9,28.65,East,88,6.7,8.1,85,0.00,,,0.00,WeatherDisplay:10.37,2013-09-20 00:42:00,
2013-09-19 19:46:00,81.9,76.9,28.65,ESE,108,7.4,11.5,85,0.00,,,0.00,WeatherDisplay:10.37,2013-09-20 00:46:00,
2013-09-19 19:51:00,81.9,77.3,28.65,ESE,102,6.6,6.6,86,0.00,,,0.00,WeatherDisplay:10.37,2013-09-20 00:51:00,
2013-09-19 19:56:00,81.9,77.3,28.66,SE,144,6.3,9.5,86,0.00,,,0.00,WeatherDisplay:10.37,2013-09-20 00:56:00,
2013-09-19 20:01:00,82.0,77.4,28.66,SE,141,2.2,5.8,86,0.00,,,0.00,WeatherDisplay:10.37,2013-09-20 01:01:00,
2013-09-19 20:06:00,81.9,77.3,28.66,SE,132,3.6,5.8,86,0.00,,,0.00,WeatherDisplay:10.37,2013-09-20 01:06:00,
2013-09-19 20:11:00,81.8,76.8,28.66,ESE,111,6.3,9.2,85,0.00,,,0.00,WeatherDisplay:10.37,2013-09-20 01:11:00,
2013-09-19 20:16:00,81.8,76.8,28.66,ESE,121,5.1,8.1,85,0.00,,,0.00,WeatherDisplay:10.37,2013-09-20 01:16:00,
2013-09-19 20:21:00,81.7,77.1,28.67,ESE,105,3.7,6.9,86,0.00,,,0.00,WeatherDisplay:10.37,2013-09-20 01:21:00,
2013-09-19 20:26:00,81.6,77.0,28.67,East,85,5.4,6.9,86,0.00,,,0.00,WeatherDisplay:10.37,2013-09-20 01:26:00,
2013-09-19 20:31:00,81.5,76.9,28.67,East,99,5.3,9.2,86,0.00,,,0.00,WeatherDisplay:10.37,2013-09-20 01:31:00,
2013-09-19 20:36:00,81.5,76.9,28.67,SE,142,6.2,8.1,86,0.00,,,0.00,WeatherDisplay:10.37,2013-09-20 01:36:00,
2013-09-19 20:41:00,81.4,76.8,28.66,ESE,115,4.6,9.2,86,0.00,,,0.00,WeatherDisplay:10.37,2013-09-20 01:41:00,
2013-09-19 20:46:00,81.4,76.8,28.67,ESE,110,5.7,8.1,86,0.00,,,0.00,WeatherDisplay:10.37,2013-09-20 01:46:00,
2013-09-19 20:51:00,81.4,76.8,28.67,ESE,120,4.7,6.3,86,0.00,,,0.00,WeatherDisplay:10.37,2013-09-20 01:51:00,
2013-09-19 20:56:00,81.4,76.5,28.67,East,99,4.4,6.3,85,0.00,,,0.00,WeatherDisplay:10.37,2013-09-20 01:56:00,
2013-09-19 21:01:00,81.4,76.8,28.67,ESE,118,6.4,6.4,86,0.00,,,0.00,WeatherDisplay:10.37,2013-09-20 02:01:00,
2013-09-19 21:06:00,81.4,77.2,28.68,SE,130,2.7,5.8,87,0.00,,,0.00,WeatherDisplay:10.37,2013-09-20 02:06:00,
2013-09-19 21:11:00,81.4,76.8,28.68,ESE,105,3.5,8.1,86,0.00,,,0.00,WeatherDisplay:10.37,2013-09-20 02:11:00,
2013-09-19 21:16:00,81.4,76.8,28.68,South,184,5.2,10.5,86,0.00,,,0.00,WeatherDisplay:10.37,2013-09-20 02:16:00,
2013-09-19 21:21:00,81.4,77.2,28.68,ESE,114,3.5,5.8,87,0.00,,,0.00,WeatherDisplay:10.37,2013-09-20 02:21:00,
2013-09-19 21:26:00,81.4,77.2,28.68,SSE,159,6.0,10.4,87,0.00,,,0.00,WeatherDisplay:10.37,2013-09-20 02:26:00,
2013-09-19 21:31:00,81.4,77.2,28.68,East,94,6.4,11.5,87,0.00,,,0.00,WeatherDisplay:10.37,2013-09-20 02:31:00,
2013-09-19 21:36:00,81.4,76.8,28.68,ESE,116,6.1,6.1,86,0.00,,,0.00,WeatherDisplay:10.37,2013-09-20 02:36:00,
2013-09-19 21:41:00,81.4,76.8,28.68,ESE,106,7.8,8.1,86,0.00,,,0.00,WeatherDisplay:10.37,2013-09-20 02:41:00,
2013-09-19 21:46:00,81.4,76.8,28.68,SE,126,9.1,12.7,86,0.00,,,0.00,WeatherDisplay:10.37,2013-09-20 02:46:00,
2013-09-19 21:51:00,81.4,76.8,28.68,East,100,6.3,10.5,86,0.00,,,0.00,WeatherDisplay:10.37,2013-09-20 02:51:00,
2013-09-19 21:56:00,81.4,76.8,28.68,ESE,111,6.4,8.1,86,0.00,,,0.00,WeatherDisplay:10.37,2013-09-20 02:56:00,
2013-09-19 22:01:00,81.4,76.8,28.68,South,174,5.1,11.5,86,0.00,,,0.00,WeatherDisplay:10.37,2013-09-20 03:01:00,
2013-09-19 22:06:00,81.4,76.8,28.68,SE,142,6.5,9.2,86,0.00,,,0.00,WeatherDisplay:10.37,2013-09-20 03:06:00,
2013-09-19 22:11:00,81.4,76.8,28.68,SE,142,4.7,8.4,86,0.00,,,0.00,WeatherDisplay:10.37,2013-09-20 03:11:00,
2013-09-19 22:16:00,81.5,76.9,28.68,ESE,109,9.0,12.7,86,0.00,,,0.00,WeatherDisplay:10.37,2013-09-20 03:16:00,
2013-09-19 22:21:00,81.6,77.0,28.68,East,94,5.1,8.1,86,0.00,,,0.00,WeatherDisplay:10.37,2013-09-20 03:21:00,
2013-09-19 22:26:00,81.6,77.4,28.68,SSW,203,3.7,9.2,87,0.00,,,0.00,WeatherDisplay:10.37,2013-09-20 03:26:00,
2013-09-19 22:31:00,81.5,77.3,28.68,ESE,118,4.8,11.5,87,0.00,,,0.00,WeatherDisplay:10.37,2013-09-20 03:31:00,
2013-09-19 22:36:00,81.4,77.2,28.68,SSE,151,6.7,6.7,87,0.00,,,0.00,WeatherDisplay:10.37,2013-09-20 03:36:00,
2013-09-19 22:41:00,81.3,77.1,28.68,ESE,118,5.8,9.2,87,0.00,,,0.00,WeatherDisplay:10.37,2013-09-20 03:41:00,
2013-09-19 22:46:00,81.3,77.4,28.68,ESE,118,6.4,8.1,88,0.00,,,0.00,WeatherDisplay:10.37,2013-09-20 03:46:00,
2013-09-19 22:51:00,81.3,77.4,28.67,South,177,4.0,5.8,88,0.00,,,0.00,WeatherDisplay:10.37,2013-09-20 03:51:00,
2013-09-19 22:56:00,81.3,77.4,28.67,SE,135,4.3,6.9,88,0.00,,,0.00,WeatherDisplay:10.37,2013-09-20 03:56:00,
2013-09-19 23:01:00,81.3,77.4,28.67,ESE,120,8.9,11.5,88,0.01,RA,,0.01,WeatherDisplay:10.37,2013-09-20 04:01:00,
2013-09-19 23:02:00,81.1,77.5,28.67,ESE,123,3.6,11.5,89,0.01,RA,,0.01,WeatherDisplay:10.37,2013-09-20 04:02:00,
2013-09-19 23:07:00,80.5,77.6,28.67,SE,132,5.4,9.2,91,0.01,RA,,0.01,WeatherDisplay:10.37,2013-09-20 04:07:00,
2013-09-19 23:12:00,80.0,77.5,28.67,SE,130,7.2,7.2,92,0.01,,,0.01,WeatherDisplay:10.37,2013-09-20 04:12:00,
2013-09-19 23:17:00,79.8,77.3,28.68,South,171,8.2,12.7,92,0.01,,,0.01,WeatherDisplay:10.37,2013-09-20 04:17:00,
2013-09-19 23:22:00,79.9,77.4,28.68,ESE,109,5.8,11.5,92,0.01,,,0.01,WeatherDisplay:10.37,2013-09-20 04:22:00,
2013-09-19 23:27:00,79.9,77.4,28.68,SE,130,6.0,9.2,92,0.01,,,0.01,WeatherDisplay:10.37,2013-09-20 04:27:00,
2013-09-19 23:32:00,79.8,76.9,28.67,East,98,8.8,10.5,91,0.01,,,0.01,WeatherDisplay:10.37,2013-09-20 04:32:00,
2013-09-19 23:37:00,79.8,76.6,28.68,SE,143,6.4,9.2,90,0.01,,,0.01,WeatherDisplay:10.37,2013-09-20 04:37:00,
2013-09-19 23:42:00,79.9,76.7,28.68,ESE,119,4.2,5.8,90,0.01,,,0.01,WeatherDisplay:10.37,2013-09-20 04:42:00,
2013-09-19 23:47:00,79.9,77.0,28.67,SE,130,4.7,7.4,91,0.01,,,0.01,WeatherDisplay:10.37,2013-09-20 04:47:00,
2013-09-19 23:52:00,80.1,76.9,28.67,SE,132,4.4,13.8,90,0.01,,,0.01,WeatherDisplay:10.37,2013-09-20 04:52:00,
2013-09-19 23:57:00,80.2,77.0,28.67,SE,133,6.7,13.8,90,0.00,RA,,0.00,WeatherDisplay:10.37,2013-09-20 04:57:00,